Aswan, Egypt

9:16 PM EET on September 19, 2017 (GMT +0200)
Aswan

Weather History for HESN - November, 2013

Change the Weather History Date:

Monday, November 11, 2013

  Actual Average Record
Temperature  
Mean Temperature 75 °F -  
Max Temperature 88 °F 79 °F 98 °F (2016)
Min Temperature 62 °F 57 °F 57 °F (2005)
Cooling Degree Days 10    
Growing Degree Days 25 (Base 50)    
Moisture  
Dew Point 45 °F    
Average Humidity 34    
Maximum Humidity 56    
Minimum Humidity 12    
Precipitation  
Precipitation 0.00 in 0.00 in - ()
Sea Level Pressure  
Sea Level Pressure 29.90 in    
Wind  
Wind Speed 5 mph ()    
Max Wind Speed 9 mph    
Max Gust Speed -    
Visibility 6.0 miles    
Events      
Averages and records for this station are not official NWS values.
T = Trace of Precipitation, MM = Missing Value Source: Averaged Metar Reports

Daily Weather History Graph

Daily Weather History Graph

Search for Another Location

Airport or City:

Trip Planner

Search our weather history database for the weather conditions in past years. The results will help you decide how hot, cold, wet, or windy it might be!

Date:

Astronomy

Nov. 11, 2013 Rise Set
Actual Time 6:01 AM EET 5:04 PM EET
Civil Twilight 5:37 AM EET 5:28 PM EET
Nautical Twilight 5:10 AM EET 5:55 PM EET
Astronomical Twilight 4:43 AM EET 6:22 PM EET
Moon 12:56 PM EET (11/11) 12:05 AM EET (11/11)
Length of Visible Light 11h 50m
Length of Day
11h 03m
Waxing Gibbous, 63% of the Moon is Illuminated
Nov 11
Waxing Gibbous
Nov 17
Full
Nov 25
Last Quarter
Dec 3
New
Dec 9
First Quarter

Hourly Weather History & Observations

Time (EET) Temp. Dew Point Humidity Pressure Visibility Wind Dir Wind Speed Gust Speed Precip Events Conditions
12:00 AM 71.6 °F 44.6 °F 38% 29.89 in - North 4.6 mph - N/A   Clear
1:00 AM 69.8 °F 44.6 °F 40% 29.89 in - NNW 8.1 mph - N/A   Clear
2:00 AM 68 °F 44 °F 31% 29.88 in 6 mi North 5.8 mph - -  
2:00 AM 68.0 °F 44.6 °F 43% 29.89 in - North 5.8 mph - N/A   Clear
3:00 AM 66.2 °F 44.6 °F 46% 29.89 in - North 4.6 mph - N/A   Clear
4:00 AM 64.4 °F 44.6 °F 49% 29.89 in - WNW 4.6 mph - N/A   Clear
5:00 AM 64.4 °F 44.6 °F 49% 29.89 in - NNW 8.1 mph - N/A   Clear
6:00 AM 62.6 °F 46.4 °F 55% 29.92 in - North 6.9 mph - N/A   Clear
7:00 AM 64.4 °F 48.2 °F 56% 29.92 in - North 5.8 mph - N/A   Clear
8:00 AM 67 °F 50 °F 43% 29.94 in 6 mi North 6.9 mph - -  
8:00 AM 68.0 °F 50.0 °F 52% 29.95 in - North 6.9 mph - N/A   Clear
9:00 AM 73.4 °F 50.0 °F 44% 29.95 in - North 9.2 mph - N/A   Clear
10:00 AM 77.0 °F 51.8 °F 41% 29.95 in - North 6.9 mph - N/A   Clear
11:00 AM 80.6 °F 51.8 °F 37% 29.92 in - North 5.8 mph - N/A   Clear
12:00 PM 84.2 °F 48.2 °F 29% 29.89 in - North 3.5 mph - N/A   Clear
1:00 PM 87.8 °F 46.4 °F 24% 29.89 in - WSW 2.3 mph - N/A   Clear
2:00 PM 88 °F 42 °F 12% 29.84 in 6 mi South 5.8 mph - -  
2:00 PM 87.8 °F 42.8 °F 21% 29.89 in - South 5.8 mph - N/A   Clear
3:00 PM 87.8 °F 42.8 °F 21% 29.86 in - SW 4.6 mph - N/A   Clear
4:00 PM 86.0 °F 42.8 °F 22% 29.86 in - NNW 2.3 mph - N/A   Clear
5:00 PM 84.2 °F 42.8 °F 23% 29.86 in - WNW 5.8 mph - N/A   Clear
6:00 PM 84.2 °F 42.8 °F 23% 29.86 in - WNW 4.6 mph - N/A   Clear
7:00 PM 82.4 °F 42.8 °F 25% 29.89 in - West 6.9 mph - N/A   Clear
8:00 PM 77 °F 43 °F 19% 29.89 in 6 mi North 2.3 mph - -  
8:00 PM 77.0 °F 42.8 °F 29% 29.92 in - North 2.3 mph - N/A   Clear
9:00 PM 75.2 °F 41.0 °F 29% 29.92 in - NNW 4.6 mph - N/A   Clear
10:00 PM 73.4 °F 39.2 °F 29% 29.92 in - NNW 4.6 mph - N/A   Clear
11:00 PM 73.4 °F 39.2 °F 29% 29.92 in - NNW 6.9 mph - N/A   Clear